カタログに戻る

CZ-6A DEB

運用中PO
NORAD 61300·DEBRIS·🇨🇳 China

打ち上げ Aug 6, 2024 から Taiyuan Satellite Launch Center

Loading…

次のパス (今後24時間)

TLE

最新Source: Space-Track

元期: Sep 14, 2026, 10:46 UTC

1 61300U 24140TM  26257.44879361  .00004952  00000-0  83396-3 0  9997
2 61300  89.0303 262.3028 0131653 315.9900  43.0890 14.63794632108990

AllMySatでCZ-6A DEBをリアルタイム追跡

Download on the App Store